Home   Weather   Waren (Müritz)   Past weeks
Flag for Germany

Past Weather in Waren (Müritz), Mecklenburg-Western Pomerania, Germany — Yesterday and Last 2 Weeks

Now
64 °F

Passing clouds.


Feels Like: 64 °F
Forecast: 70 / 50 °F
Wind: 9 mph from Southeast

Location: Laage

Current Time: Sep 22, 2019 at 12:13:37 pm

Latest Report: Sep 22, 2019 at 11:20 am


Visibility: N/A

Pressure: 29.98 "Hg

Humidity: 56%

Dew Point: 48 °F

Location of Waren (Müritz)Location

Past Weather in Waren (Müritz) — Graph

°F

Waren (Müritz) Temperature Yesterday

Maximum temperature yesterday: 66 °F (at 5:20 pm)
Minimum temperature yesterday: 52 °F (at 11:20 pm)
Average temperature yesterday: 59 °F

High & Low Weather Summary for the Past Weeks

 TemperatureHumidityPressure
High68 °F (Sep 8, 4:20 pm)100% (Sep 9, 9:20 am)30.54 "Hg (Sep 9, 9:20 am)
Low45 °F (Sep 19, 4:20 am)46% (Sep 11, 4:20 pm)29.77 "Hg (Sep 10, 1:20 am)
Average56 °F80%30.11 "Hg
* Reported Sep 7 10:20 am — Sep 22 10:20 am, Waren (Müritz). Weather by CustomWeather, © 2019

Note: Actual official high and low records may vary slightly from our data, if they occured in-between our weather recording intervals... More about our weather records

Advertising

Waren (Müritz) Weather History for the Previous 24 Hours

Scroll right to see more
 ConditionsComfort  
Time TempWeatherWind HumidityBarometerVisibility
10:20 am
Sun, Sep 22
61 °FPassing clouds.6 mph68%29.98 "HgN/A
9:20 am54 °FPassing clouds.6 mph88%30.01 "HgN/A
8:20 am48 °FPassing clouds.3 mph100%30.01 "HgN/A
7:20 am46 °FFog.3 mph100%30.01 "HgN/A
6:20 am48 °FFog.3 mph94%30.01 "Hg3 mi
5:20 am48 °FFog.5 mph94%30.01 "Hg4 mi
4:20 am48 °FFog.1 mph100%30.04 "Hg6 mi
3:20 am50 °FFog.3 mph94%30.04 "Hg6 mi
2:20 am50 °FFog.3 mph100%30.07 "HgN/A
1:20 am52 °FFog.5 mph94%30.07 "HgN/A
12:20 am52 °FFog.3 mph100%30.07 "HgN/A
11:20 pm
Sat, Sep 21
52 °FFog.3 mph100%30.09 "HgN/A
10:20 pm54 °FFog.2 mph94%30.09 "HgN/A
9:20 pm55 °FCool.3 mph94%30.09 "HgN/A
8:20 pm55 °FPassing clouds.1 mph94%30.09 "HgN/A
7:20 pm59 °FPassing clouds.1 mph82%30.12 "HgN/A
6:20 pm64 °FPassing clouds.3 mph68%30.12 "HgN/A
5:20 pm66 °FPassing clouds.6 mph64%30.12 "HgN/A
4:20 pm64 °FScattered clouds.5 mph73%30.12 "HgN/A
3:20 pm64 °FPassing clouds.7 mph73%30.15 "HgN/A
2:20 pm63 °FScattered clouds.8 mph73%30.15 "HgN/A
1:45 pm63 °FScattered clouds.7 mph73%30.18 "HgN/A
1:20 pm61 °FPartly sunny.9 mph77%30.18 "HgN/A
12:44 pm61 °FPartly sunny.13 mph77%30.18 "HgN/A
12:20 pm59 °FPartly sunny.13 mph82%30.18 "HgN/A
Weather by CustomWeather, © 2019

See weather overview